Location: Gökben Yaylas?
(36.8988°N, 29.6291°E)
Time: 07:56:21
(UTC+00:00)

Cosmos 1626 Rocket - Pass Details

Date: 15 May 2026
Orbit: 597 x 623 km, 82.5° (Epoch: 5 June)

Event Time Altitude Azimuth Distance (km) Brightness Sun altitude
Rises 19:21:25 0° 347° (NNW) 2,880 8.0 -23.0°
Reaches altitude 10° 19:23:40 10° 342° (NNW) 1,975 7.1 -23.3°
Maximum altitude 19:27:54 51° 267° (W) 776 4.2 -23.8°
Enters shadow 19:28:45 44° 229° (SW) 857 4.2 -24.0°
